Flag for Poland Weather past 2 weeks in Tarnów, Poland

Now
42 °F

Fog.


Feels Like: 42 °F
Forecast: 38 / 50 °F
Wind: 1 mph from Northwest

Location: Tarnow

Current Time: Feb 28, 2015 at 3:43:40 AM

Latest Report: Feb 28, 2015 at 3:00 AM


Visibility: 2 mi

Pressure: 30.02 "Hg

Humidity: 94%

Dew point: 40 °F

Location of TarnówLocation

Historic Weather in Tarnów — Graph

°F

Tarnów temperature yesterday

Maximum temperature yesterday: 49 °F (at 2:00 PM)
Minimum temperature yesterday: 40 °F (at 5:00 AM)
Average temperature yesterday: 43 °F

Past Weeks' High & Low Weather Summary

 TemperatureHumidityPressure
High56 °F (Feb 23, 2:00 PM)98% (Feb 25, 3:00 PM)30.76 "Hg (Feb 25, 3:00 PM)
Low19 °F (Feb 18, 7:00 AM)21% (Feb 17, 2:00 PM)29.61 "Hg (Feb 21, 3:00 PM)
Average38 °F70%30.13 "Hg
* Reported Feb 13 2:00 AM — Feb 28 2:00 AM, Tarnów, Weather by CustomWeather, © 2015

Note: Actual official high and low records may vary slightly from our data, if they occured in-between our weather recording intervals... More about our weather records

Advertising

Tarnów weather history for previous 24 hours

 ConditionsComfort  
Time TempWeatherWind HumidityBarometerVisibility
2:00 AM
Sat, Feb 28
42 °FFog.1 mph93%30.01 "Hg2 mi
1:00 AM42 °FFog.1 mph90%30.01 "Hg2 mi
12:00 AM43 °FFog.1 mph87%30.01 "Hg3 mi
11:00 PM
Fri, Feb 27
43 °FFog.1 mph85%30.01 "Hg4 mi
9:00 PM43 °FFog.1 mph83%30.00 "Hg4 mi
8:00 PM43 °FFog.1 mph82%29.98 "Hg4 mi
7:00 PM44 °FQuite cool.1 mph80%29.98 "Hg6 mi
6:00 PM45 °FQuite cool.2 mph78%29.96 "Hg6 mi
5:00 PM47 °FCool.1 mph69%29.95 "Hg12 mi
4:00 PM48 °FCool.2 mph68%29.94 "Hg16 mi
3:00 PM48 °FCool.3 mph68%29.94 "Hg14 mi
2:00 PM49 °FCool.2 mph67%29.94 "Hg16 mi
1:00 PM49 °FCool.2 mph73%29.95 "Hg14 mi
12:00 PM46 °FCool.2 mph77%29.98 "Hg13 mi
11:00 AM44 °FQuite cool.2 mph82%29.99 "Hg10 mi
10:00 AM41 °FQuite cool.2 mph86%30.00 "Hg7 mi
9:00 AM42 °FFog.2 mph88%30.01 "Hg4 mi
8:00 AM41 °FFog.1 mph96%30.02 "Hg2 mi
7:00 AM40 °FFog.1 mph98%30.11 "Hg1 mi
6:00 AM40 °FFog.1 mph98%30.11 "Hg1 mi
5:00 AM40 °FFog.2 mph98%30.11 "Hg1 mi
Weather by CustomWeather, © 2015

See weather overviewHow to use our weather pages